Index of /20260501/WXO-DD/model_rdps/10km/00/025
Name Last modified Size Description
Parent Directory -
20260501T00Z_MSC_RDPS_AbsoluteVorticity_IsbL-0250_RLatLon0.09_PT025H.grib2 2026-05-01 02:51 592K
20260501T00Z_MSC_RDPS_AbsoluteVorticity_IsbL-0500_RLatLon0.09_PT025H.grib2 2026-05-01 02:51 560K
20260501T00Z_MSC_RDPS_AbsoluteVorticity_IsbL-0700_RLatLon0.09_PT025H.grib2 2026-05-01 02:51 620K
20260501T00Z_MSC_RDPS_AbsoluteVorticity_IsbL-0850_RLatLon0.09_PT025H.grib2 2026-05-01 02:51 770K
20260501T00Z_MSC_RDPS_AirTemp_AGL-120m_RLatLon0.09_PT025H.grib2 2026-05-01 02:51 385K
20260501T00Z_MSC_RDPS_AirTemp_AGL-2m_RLatLon0.09_PT025H.grib2 2026-05-01 02:51 620K
20260501T00Z_MSC_RDPS_AirTemp_AGL-40m_RLatLon0.09_PT025H.grib2 2026-05-01 02:51 395K
20260501T00Z_MSC_RDPS_AirTemp_AGL-80m_RLatLon0.09_PT025H.grib2 2026-05-01 02:51 389K
20260501T00Z_MSC_RDPS_AirTemp_IsbL-0001_RLatLon0.09_PT025H.grib2 2026-05-01 02:51 254K
20260501T00Z_MSC_RDPS_AirTemp_IsbL-0005_RLatLon0.09_PT025H.grib2 2026-05-01 02:51 284K
20260501T00Z_MSC_RDPS_AirTemp_IsbL-0010_RLatLon0.09_PT025H.grib2 2026-05-01 02:51 294K
20260501T00Z_MSC_RDPS_AirTemp_IsbL-0020_RLatLon0.09_PT025H.grib2 2026-05-01 02:51 403K
20260501T00Z_MSC_RDPS_AirTemp_IsbL-0030_RLatLon0.09_PT025H.grib2 2026-05-01 02:51 333K
20260501T00Z_MSC_RDPS_AirTemp_IsbL-0050_RLatLon0.09_PT025H.grib2 2026-05-01 02:51 311K
20260501T00Z_MSC_RDPS_AirTemp_IsbL-0100_RLatLon0.09_PT025H.grib2 2026-05-01 02:51 387K
20260501T00Z_MSC_RDPS_AirTemp_IsbL-0150_RLatLon0.09_PT025H.grib2 2026-05-01 02:51 418K
20260501T00Z_MSC_RDPS_AirTemp_IsbL-0175_RLatLon0.09_PT025H.grib2 2026-05-01 02:51 411K
20260501T00Z_MSC_RDPS_AirTemp_IsbL-0200_RLatLon0.09_PT025H.grib2 2026-05-01 02:51 413K
20260501T00Z_MSC_RDPS_AirTemp_IsbL-0225_RLatLon0.09_PT025H.grib2 2026-05-01 02:51 409K
20260501T00Z_MSC_RDPS_AirTemp_IsbL-0250_RLatLon0.09_PT025H.grib2 2026-05-01 02:51 414K
20260501T00Z_MSC_RDPS_AirTemp_IsbL-0275_RLatLon0.09_PT025H.grib2 2026-05-01 02:51 395K
20260501T00Z_MSC_RDPS_AirTemp_IsbL-0300_RLatLon0.09_PT025H.grib2 2026-05-01 02:51 402K
20260501T00Z_MSC_RDPS_AirTemp_IsbL-0350_RLatLon0.09_PT025H.grib2 2026-05-01 02:51 418K
20260501T00Z_MSC_RDPS_AirTemp_IsbL-0400_RLatLon0.09_PT025H.grib2 2026-05-01 02:51 420K
20260501T00Z_MSC_RDPS_AirTemp_IsbL-0450_RLatLon0.09_PT025H.grib2 2026-05-01 02:51 394K
20260501T00Z_MSC_RDPS_AirTemp_IsbL-0500_RLatLon0.09_PT025H.grib2 2026-05-01 02:51 407K
20260501T00Z_MSC_RDPS_AirTemp_IsbL-0550_RLatLon0.09_PT025H.grib2 2026-05-01 02:51 426K
20260501T00Z_MSC_RDPS_AirTemp_IsbL-0600_RLatLon0.09_PT025H.grib2 2026-05-01 02:51 446K
20260501T00Z_MSC_RDPS_AirTemp_IsbL-0650_RLatLon0.09_PT025H.grib2 2026-05-01 02:51 459K
20260501T00Z_MSC_RDPS_AirTemp_IsbL-0700_RLatLon0.09_PT025H.grib2 2026-05-01 02:51 378K
20260501T00Z_MSC_RDPS_AirTemp_IsbL-0750_RLatLon0.09_PT025H.grib2 2026-05-01 02:51 407K
20260501T00Z_MSC_RDPS_AirTemp_IsbL-0800_RLatLon0.09_PT025H.grib2 2026-05-01 02:51 444K
20260501T00Z_MSC_RDPS_AirTemp_IsbL-0850_RLatLon0.09_PT025H.grib2 2026-05-01 02:51 488K
20260501T00Z_MSC_RDPS_AirTemp_IsbL-0875_RLatLon0.09_PT025H.grib2 2026-05-01 02:51 507K
20260501T00Z_MSC_RDPS_AirTemp_IsbL-0900_RLatLon0.09_PT025H.grib2 2026-05-01 02:51 515K
20260501T00Z_MSC_RDPS_AirTemp_IsbL-0925_RLatLon0.09_PT025H.grib2 2026-05-01 02:51 514K
20260501T00Z_MSC_RDPS_AirTemp_IsbL-0950_RLatLon0.09_PT025H.grib2 2026-05-01 02:51 517K
20260501T00Z_MSC_RDPS_AirTemp_IsbL-0970_RLatLon0.09_PT025H.grib2 2026-05-01 02:51 513K
20260501T00Z_MSC_RDPS_AirTemp_IsbL-0985_RLatLon0.09_PT025H.grib2 2026-05-01 02:51 506K
20260501T00Z_MSC_RDPS_AirTemp_IsbL-1000_RLatLon0.09_PT025H.grib2 2026-05-01 02:51 492K
20260501T00Z_MSC_RDPS_AirTemp_IsbL-1015_RLatLon0.09_PT025H.grib2 2026-05-01 02:51 483K
20260501T00Z_MSC_RDPS_Albedo_Sfc_RLatLon0.09_PT025H.grib2 2026-05-01 02:51 159K
20260501T00Z_MSC_RDPS_CAPE_Sfc_RLatLon0.09_PT025H.grib2 2026-05-01 02:51 1.7M
20260501T00Z_MSC_RDPS_CIN_Sfc_RLatLon0.09_PT025H.grib2 2026-05-01 02:51 1.2M
20260501T00Z_MSC_RDPS_CloudWater_EAtm_RLatLon0.09_PT025H.grib2 2026-05-01 02:51 222K
20260501T00Z_MSC_RDPS_ConvectivePrecip-Accum_Sfc_RLatLon0.09_PT025H.grib2 2026-05-01 02:51 785K
20260501T00Z_MSC_RDPS_DewPointDepression_AGL-2m_RLatLon0.09_PT025H.grib2 2026-05-01 02:51 405K
20260501T00Z_MSC_RDPS_DewPointDepression_IsbL-0001_RLatLon0.09_PT025H.grib2 2026-05-01 02:51 193
20260501T00Z_MSC_RDPS_DewPointDepression_IsbL-0005_RLatLon0.09_PT025H.grib2 2026-05-01 02:51 193
20260501T00Z_MSC_RDPS_DewPointDepression_IsbL-0010_RLatLon0.09_PT025H.grib2 2026-05-01 02:51 193
20260501T00Z_MSC_RDPS_DewPointDepression_IsbL-0020_RLatLon0.09_PT025H.grib2 2026-05-01 02:51 193
20260501T00Z_MSC_RDPS_DewPointDepression_IsbL-0030_RLatLon0.09_PT025H.grib2 2026-05-01 02:51 193
20260501T00Z_MSC_RDPS_DewPointDepression_IsbL-0050_RLatLon0.09_PT025H.grib2 2026-05-01 02:51 78K
20260501T00Z_MSC_RDPS_DewPointDepression_IsbL-0100_RLatLon0.09_PT025H.grib2 2026-05-01 02:51 125K
20260501T00Z_MSC_RDPS_DewPointDepression_IsbL-0150_RLatLon0.09_PT025H.grib2 2026-05-01 02:51 154K
20260501T00Z_MSC_RDPS_DewPointDepression_IsbL-0175_RLatLon0.09_PT025H.grib2 2026-05-01 02:51 190K
20260501T00Z_MSC_RDPS_DewPointDepression_IsbL-0200_RLatLon0.09_PT025H.grib2 2026-05-01 02:51 222K
20260501T00Z_MSC_RDPS_DewPointDepression_IsbL-0225_RLatLon0.09_PT025H.grib2 2026-05-01 02:51 258K
20260501T00Z_MSC_RDPS_DewPointDepression_IsbL-0250_RLatLon0.09_PT025H.grib2 2026-05-01 02:51 300K
20260501T00Z_MSC_RDPS_DewPointDepression_IsbL-0275_RLatLon0.09_PT025H.grib2 2026-05-01 02:51 307K
20260501T00Z_MSC_RDPS_DewPointDepression_IsbL-0300_RLatLon0.09_PT025H.grib2 2026-05-01 02:51 323K
20260501T00Z_MSC_RDPS_DewPointDepression_IsbL-0350_RLatLon0.09_PT025H.grib2 2026-05-01 02:51 326K
20260501T00Z_MSC_RDPS_DewPointDepression_IsbL-0400_RLatLon0.09_PT025H.grib2 2026-05-01 02:51 338K
20260501T00Z_MSC_RDPS_DewPointDepression_IsbL-0450_RLatLon0.09_PT025H.grib2 2026-05-01 02:51 349K
20260501T00Z_MSC_RDPS_DewPointDepression_IsbL-0500_RLatLon0.09_PT025H.grib2 2026-05-01 02:51 360K
20260501T00Z_MSC_RDPS_DewPointDepression_IsbL-0550_RLatLon0.09_PT025H.grib2 2026-05-01 02:51 368K
20260501T00Z_MSC_RDPS_DewPointDepression_IsbL-0600_RLatLon0.09_PT025H.grib2 2026-05-01 02:51 381K
20260501T00Z_MSC_RDPS_DewPointDepression_IsbL-0650_RLatLon0.09_PT025H.grib2 2026-05-01 02:51 385K
20260501T00Z_MSC_RDPS_DewPointDepression_IsbL-0700_RLatLon0.09_PT025H.grib2 2026-05-01 02:51 393K
20260501T00Z_MSC_RDPS_DewPointDepression_IsbL-0750_RLatLon0.09_PT025H.grib2 2026-05-01 02:51 413K
20260501T00Z_MSC_RDPS_DewPointDepression_IsbL-0800_RLatLon0.09_PT025H.grib2 2026-05-01 02:51 445K
20260501T00Z_MSC_RDPS_DewPointDepression_IsbL-0850_RLatLon0.09_PT025H.grib2 2026-05-01 02:51 469K
20260501T00Z_MSC_RDPS_DewPointDepression_IsbL-0875_RLatLon0.09_PT025H.grib2 2026-05-01 02:51 471K
20260501T00Z_MSC_RDPS_DewPointDepression_IsbL-0900_RLatLon0.09_PT025H.grib2 2026-05-01 02:51 462K
20260501T00Z_MSC_RDPS_DewPointDepression_IsbL-0925_RLatLon0.09_PT025H.grib2 2026-05-01 02:51 449K
20260501T00Z_MSC_RDPS_DewPointDepression_IsbL-0950_RLatLon0.09_PT025H.grib2 2026-05-01 02:51 441K
20260501T00Z_MSC_RDPS_DewPointDepression_IsbL-0970_RLatLon0.09_PT025H.grib2 2026-05-01 02:51 433K
20260501T00Z_MSC_RDPS_DewPointDepression_IsbL-0985_RLatLon0.09_PT025H.grib2 2026-05-01 02:51 428K
20260501T00Z_MSC_RDPS_DewPointDepression_IsbL-1000_RLatLon0.09_PT025H.grib2 2026-05-01 02:51 421K
20260501T00Z_MSC_RDPS_DewPointDepression_IsbL-1015_RLatLon0.09_PT025H.grib2 2026-05-01 02:51 409K
20260501T00Z_MSC_RDPS_DewPoint_AGL-2m_RLatLon0.09_PT025H.grib2 2026-05-01 02:51 390K
20260501T00Z_MSC_RDPS_DownwardLongwaveRadiationFlux-Accum_Sfc_RLatLon0.09_PT025H.grib2 2026-05-01 02:51 439K
20260501T00Z_MSC_RDPS_DownwardShortwaveRadiationFlux-Accum_NTAtm_RLatLon0.09_PT025H.grib2 2026-05-01 02:51 126K
20260501T00Z_MSC_RDPS_DownwardShortwaveRadiationFlux-Accum_Sfc_RLatLon0.09_PT025H.grib2 2026-05-01 02:51 630K
20260501T00Z_MSC_RDPS_FreezingRain-Accum1h_Sfc_RLatLon0.09_PT025H.grib2 2026-05-01 02:51 26K
20260501T00Z_MSC_RDPS_FreezingRain-Accum_Sfc_RLatLon0.09_PT025H.grib2 2026-05-01 02:51 111K
20260501T00Z_MSC_RDPS_GeopotentialHeight_IsbL-0001_RLatLon0.09_PT025H.grib2 2026-05-01 02:51 307K
20260501T00Z_MSC_RDPS_GeopotentialHeight_IsbL-0005_RLatLon0.09_PT025H.grib2 2026-05-01 02:51 297K
20260501T00Z_MSC_RDPS_GeopotentialHeight_IsbL-0010_RLatLon0.09_PT025H.grib2 2026-05-01 02:51 299K
20260501T00Z_MSC_RDPS_GeopotentialHeight_IsbL-0020_RLatLon0.09_PT025H.grib2 2026-05-01 02:51 298K
20260501T00Z_MSC_RDPS_GeopotentialHeight_IsbL-0030_RLatLon0.09_PT025H.grib2 2026-05-01 02:51 300K
20260501T00Z_MSC_RDPS_GeopotentialHeight_IsbL-0050_RLatLon0.09_PT025H.grib2 2026-05-01 02:51 302K
20260501T00Z_MSC_RDPS_GeopotentialHeight_IsbL-0100_RLatLon0.09_PT025H.grib2 2026-05-01 02:51 282K
20260501T00Z_MSC_RDPS_GeopotentialHeight_IsbL-0150_RLatLon0.09_PT025H.grib2 2026-05-01 02:51 226K
20260501T00Z_MSC_RDPS_GeopotentialHeight_IsbL-0175_RLatLon0.09_PT025H.grib2 2026-05-01 02:51 228K
20260501T00Z_MSC_RDPS_GeopotentialHeight_IsbL-0200_RLatLon0.09_PT025H.grib2 2026-05-01 02:51 262K
20260501T00Z_MSC_RDPS_GeopotentialHeight_IsbL-0225_RLatLon0.09_PT025H.grib2 2026-05-01 02:51 263K
20260501T00Z_MSC_RDPS_GeopotentialHeight_IsbL-0250_RLatLon0.09_PT025H.grib2 2026-05-01 02:51 264K
20260501T00Z_MSC_RDPS_GeopotentialHeight_IsbL-0275_RLatLon0.09_PT025H.grib2 2026-05-01 02:51 264K
20260501T00Z_MSC_RDPS_GeopotentialHeight_IsbL-0300_RLatLon0.09_PT025H.grib2 2026-05-01 02:51 262K
20260501T00Z_MSC_RDPS_GeopotentialHeight_IsbL-0350_RLatLon0.09_PT025H.grib2 2026-05-01 02:51 229K
20260501T00Z_MSC_RDPS_GeopotentialHeight_IsbL-0400_RLatLon0.09_PT025H.grib2 2026-05-01 02:51 225K
20260501T00Z_MSC_RDPS_GeopotentialHeight_IsbL-0450_RLatLon0.09_PT025H.grib2 2026-05-01 02:51 294K
20260501T00Z_MSC_RDPS_GeopotentialHeight_IsbL-0500_RLatLon0.09_PT025H.grib2 2026-05-01 02:51 290K
20260501T00Z_MSC_RDPS_GeopotentialHeight_IsbL-0550_RLatLon0.09_PT025H.grib2 2026-05-01 02:51 287K
20260501T00Z_MSC_RDPS_GeopotentialHeight_IsbL-0600_RLatLon0.09_PT025H.grib2 2026-05-01 02:51 285K
20260501T00Z_MSC_RDPS_GeopotentialHeight_IsbL-0650_RLatLon0.09_PT025H.grib2 2026-05-01 02:51 254K
20260501T00Z_MSC_RDPS_GeopotentialHeight_IsbL-0700_RLatLon0.09_PT025H.grib2 2026-05-01 02:51 253K
20260501T00Z_MSC_RDPS_GeopotentialHeight_IsbL-0750_RLatLon0.09_PT025H.grib2 2026-05-01 02:51 336K
20260501T00Z_MSC_RDPS_GeopotentialHeight_IsbL-0800_RLatLon0.09_PT025H.grib2 2026-05-01 02:51 342K
20260501T00Z_MSC_RDPS_GeopotentialHeight_IsbL-0850_RLatLon0.09_PT025H.grib2 2026-05-01 02:51 349K
20260501T00Z_MSC_RDPS_GeopotentialHeight_IsbL-0875_RLatLon0.09_PT025H.grib2 2026-05-01 02:51 352K
20260501T00Z_MSC_RDPS_GeopotentialHeight_IsbL-0900_RLatLon0.09_PT025H.grib2 2026-05-01 02:51 388K
20260501T00Z_MSC_RDPS_GeopotentialHeight_IsbL-0925_RLatLon0.09_PT025H.grib2 2026-05-01 02:51 390K
20260501T00Z_MSC_RDPS_GeopotentialHeight_IsbL-0950_RLatLon0.09_PT025H.grib2 2026-05-01 02:51 393K
20260501T00Z_MSC_RDPS_GeopotentialHeight_IsbL-0970_RLatLon0.09_PT025H.grib2 2026-05-01 02:51 398K
20260501T00Z_MSC_RDPS_GeopotentialHeight_IsbL-0985_RLatLon0.09_PT025H.grib2 2026-05-01 02:51 407K
20260501T00Z_MSC_RDPS_GeopotentialHeight_IsbL-1000_RLatLon0.09_PT025H.grib2 2026-05-01 02:51 419K
20260501T00Z_MSC_RDPS_GeopotentialHeight_IsbL-1015_RLatLon0.09_PT025H.grib2 2026-05-01 02:51 434K
20260501T00Z_MSC_RDPS_Humidex_Sfc_RLatLon0.09_PT025H.grib2 2026-05-01 02:51 2.4M
20260501T00Z_MSC_RDPS_IcePellets-Accum1h_Sfc_RLatLon0.09_PT025H.grib2 2026-05-01 02:51 6.6K
20260501T00Z_MSC_RDPS_IcePellets-Accum_Sfc_RLatLon0.09_PT025H.grib2 2026-05-01 02:51 23K
20260501T00Z_MSC_RDPS_KIndex_Sfc_RLatLon0.09_PT025H.grib2 2026-05-01 02:51 2.4M
20260501T00Z_MSC_RDPS_LatentHeatNetFlux_Sfc_RLatLon0.09_PT025H.grib2 2026-05-01 02:51 333K
20260501T00Z_MSC_RDPS_LiftedIndex-MU-VT_IsbL-0500_RLatLon0.09_PT025H.grib2 2026-05-01 02:51 2.4M
20260501T00Z_MSC_RDPS_NetLongwaveRadiationFlux-Accum_Sfc_RLatLon0.09_PT025H.grib2 2026-05-01 02:51 581K
20260501T00Z_MSC_RDPS_NetShortwaveRadiationFlux-Accum_Sfc_RLatLon0.09_PT025H.grib2 2026-05-01 02:51 632K
20260501T00Z_MSC_RDPS_PlanetaryBoundaryLayerHeight_Sfc_RLatLon0.09_PT025H.grib2 2026-05-01 02:51 1.0M
20260501T00Z_MSC_RDPS_Precip-Accum1h_Sfc_RLatLon0.09_PT025H.grib2 2026-05-01 02:51 1.2M
20260501T00Z_MSC_RDPS_Precip-Accum_Sfc_RLatLon0.09_PT025H.grib2 2026-05-01 02:51 1.8M
20260501T00Z_MSC_RDPS_PrecipRate_Sfc_RLatLon0.09_PT025H.grib2 2026-05-01 02:51 160K
20260501T00Z_MSC_RDPS_PrecipType-Instant_Sfc_RLatLon0.09_PT025H.grib2 2026-05-01 02:51 562K
20260501T00Z_MSC_RDPS_Pressure-Trend3h_Sfc_RLatLon0.09_PT025H.grib2 2026-05-01 02:51 1.2M
20260501T00Z_MSC_RDPS_Pressure_MSL_RLatLon0.09_PT025H.grib2 2026-05-01 02:51 322K
20260501T00Z_MSC_RDPS_Pressure_PVU-1.5_RLatLon0.09_PT025H.grib2 2026-05-01 02:51 2.3M
20260501T00Z_MSC_RDPS_Pressure_PVU-1_RLatLon0.09_PT025H.grib2 2026-05-01 02:51 2.4M
20260501T00Z_MSC_RDPS_Pressure_PVU-2_RLatLon0.09_PT025H.grib2 2026-05-01 02:51 2.4M
20260501T00Z_MSC_RDPS_Pressure_Sfc_RLatLon0.09_PT025H.grib2 2026-05-01 02:51 497K
20260501T00Z_MSC_RDPS_RadiativeTemp_Sfc_RLatLon0.09_PT025H.grib2 2026-05-01 02:51 308K
20260501T00Z_MSC_RDPS_Rain-Accum1h_Sfc_RLatLon0.09_PT025H.grib2 2026-05-01 02:51 517K
20260501T00Z_MSC_RDPS_Rain-Accum_Sfc_RLatLon0.09_PT025H.grib2 2026-05-01 02:51 1.3M
20260501T00Z_MSC_RDPS_RelativeHumidity_AGL-2m_RLatLon0.09_PT025H.grib2 2026-05-01 02:51 1.0M
20260501T00Z_MSC_RDPS_RelativeHumidity_IsbL-0010_RLatLon0.09_PT025H.grib2 2026-05-01 02:51 629K
20260501T00Z_MSC_RDPS_RelativeHumidity_IsbL-0020_RLatLon0.09_PT025H.grib2 2026-05-01 02:51 677K
20260501T00Z_MSC_RDPS_RelativeHumidity_IsbL-0030_RLatLon0.09_PT025H.grib2 2026-05-01 02:51 606K
20260501T00Z_MSC_RDPS_RelativeHumidity_IsbL-0050_RLatLon0.09_PT025H.grib2 2026-05-01 02:51 312K
20260501T00Z_MSC_RDPS_RelativeHumidity_IsbL-0100_RLatLon0.09_PT025H.grib2 2026-05-01 02:51 276K
20260501T00Z_MSC_RDPS_RelativeHumidity_IsbL-0150_RLatLon0.09_PT025H.grib2 2026-05-01 02:51 410K
20260501T00Z_MSC_RDPS_RelativeHumidity_IsbL-0175_RLatLon0.09_PT025H.grib2 2026-05-01 02:51 477K
20260501T00Z_MSC_RDPS_RelativeHumidity_IsbL-0200_RLatLon0.09_PT025H.grib2 2026-05-01 02:51 555K
20260501T00Z_MSC_RDPS_RelativeHumidity_IsbL-0225_RLatLon0.09_PT025H.grib2 2026-05-01 02:51 619K
20260501T00Z_MSC_RDPS_RelativeHumidity_IsbL-0250_RLatLon0.09_PT025H.grib2 2026-05-01 02:51 687K
20260501T00Z_MSC_RDPS_RelativeHumidity_IsbL-0275_RLatLon0.09_PT025H.grib2 2026-05-01 02:51 709K
20260501T00Z_MSC_RDPS_RelativeHumidity_IsbL-0300_RLatLon0.09_PT025H.grib2 2026-05-01 02:51 749K
20260501T00Z_MSC_RDPS_RelativeHumidity_IsbL-0350_RLatLon0.09_PT025H.grib2 2026-05-01 02:51 766K
20260501T00Z_MSC_RDPS_RelativeHumidity_IsbL-0400_RLatLon0.09_PT025H.grib2 2026-05-01 02:51 785K
20260501T00Z_MSC_RDPS_RelativeHumidity_IsbL-0450_RLatLon0.09_PT025H.grib2 2026-05-01 02:51 799K
20260501T00Z_MSC_RDPS_RelativeHumidity_IsbL-0500_RLatLon0.09_PT025H.grib2 2026-05-01 02:51 820K
20260501T00Z_MSC_RDPS_RelativeHumidity_IsbL-0550_RLatLon0.09_PT025H.grib2 2026-05-01 02:51 840K
20260501T00Z_MSC_RDPS_RelativeHumidity_IsbL-0600_RLatLon0.09_PT025H.grib2 2026-05-01 02:51 859K
20260501T00Z_MSC_RDPS_RelativeHumidity_IsbL-0650_RLatLon0.09_PT025H.grib2 2026-05-01 02:51 859K
20260501T00Z_MSC_RDPS_RelativeHumidity_IsbL-0700_RLatLon0.09_PT025H.grib2 2026-05-01 02:51 886K
20260501T00Z_MSC_RDPS_RelativeHumidity_IsbL-0750_RLatLon0.09_PT025H.grib2 2026-05-01 02:51 928K
20260501T00Z_MSC_RDPS_RelativeHumidity_IsbL-0800_RLatLon0.09_PT025H.grib2 2026-05-01 02:51 1.0M
20260501T00Z_MSC_RDPS_RelativeHumidity_IsbL-0850_RLatLon0.09_PT025H.grib2 2026-05-01 02:51 1.0M
20260501T00Z_MSC_RDPS_RelativeHumidity_IsbL-0875_RLatLon0.09_PT025H.grib2 2026-05-01 02:51 1.0M
20260501T00Z_MSC_RDPS_RelativeHumidity_IsbL-0900_RLatLon0.09_PT025H.grib2 2026-05-01 02:51 1.1M
20260501T00Z_MSC_RDPS_RelativeHumidity_IsbL-0925_RLatLon0.09_PT025H.grib2 2026-05-01 02:51 1.1M
20260501T00Z_MSC_RDPS_RelativeHumidity_IsbL-0950_RLatLon0.09_PT025H.grib2 2026-05-01 02:51 1.0M
20260501T00Z_MSC_RDPS_RelativeHumidity_IsbL-0970_RLatLon0.09_PT025H.grib2 2026-05-01 02:51 1.0M
20260501T00Z_MSC_RDPS_RelativeHumidity_IsbL-0985_RLatLon0.09_PT025H.grib2 2026-05-01 02:51 1.0M
20260501T00Z_MSC_RDPS_RelativeHumidity_IsbL-1000_RLatLon0.09_PT025H.grib2 2026-05-01 02:51 1.0M
20260501T00Z_MSC_RDPS_RelativeHumidity_IsbL-1015_RLatLon0.09_PT025H.grib2 2026-05-01 02:51 1.0M
20260501T00Z_MSC_RDPS_Runoff-Accum_Sfc_RLatLon0.09_PT025H.grib2 2026-05-01 02:51 55K
20260501T00Z_MSC_RDPS_SWEATIndex_Sfc_RLatLon0.09_PT025H.grib2 2026-05-01 02:51 2.4M
20260501T00Z_MSC_RDPS_SeeingIndex_EAtm_RLatLon0.09_PT025H.grib2 2026-05-01 02:51 1.0M
20260501T00Z_MSC_RDPS_SensibleHeatNetFlux_Sfc_RLatLon0.09_PT025H.grib2 2026-05-01 02:51 296K
20260501T00Z_MSC_RDPS_ShowalterIndex_IsbL-0500_RLatLon0.09_PT025H.grib2 2026-05-01 02:51 2.6M
20260501T00Z_MSC_RDPS_SkyTransparencyIndex_EAtm_RLatLon0.09_PT025H.grib2 2026-05-01 02:51 713K
20260501T00Z_MSC_RDPS_Snow-Accum1h_Sfc_RLatLon0.09_PT025H.grib2 2026-05-01 02:51 448K
20260501T00Z_MSC_RDPS_Snow-Accum_Sfc_RLatLon0.09_PT025H.grib2 2026-05-01 02:51 664K
20260501T00Z_MSC_RDPS_SnowDensity_Sfc_RLatLon0.09_PT025H.grib2 2026-05-01 02:51 170K
20260501T00Z_MSC_RDPS_SnowDepth_Sfc_RLatLon0.09_PT025H.grib2 2026-05-01 02:51 663K
20260501T00Z_MSC_RDPS_SoilTemp_DBS-0to10cm_RLatLon0.09_PT025H.grib2 2026-05-01 02:51 228K
20260501T00Z_MSC_RDPS_SoilTemp_Sfc_RLatLon0.09_PT025H.grib2 2026-05-01 02:51 261K
20260501T00Z_MSC_RDPS_SoilVolumetricIceContent_Sfc_RLatLon0.09_PT025H.grib2 2026-05-01 02:51 161K
20260501T00Z_MSC_RDPS_SoilVolumetricWaterContent_DBS-0to10cm_RLatLon0.09_PT025H.grib2 2026-05-01 02:51 270K
20260501T00Z_MSC_RDPS_SoilVolumetricWaterContent_DBS-0to1cm_RLatLon0.09_PT025H.grib2 2026-05-01 02:51 336K
20260501T00Z_MSC_RDPS_SpecificHumidity_AGL-120m_RLatLon0.09_PT025H.grib2 2026-05-01 02:51 482K
20260501T00Z_MSC_RDPS_SpecificHumidity_AGL-2m_RLatLon0.09_PT025H.grib2 2026-05-01 02:51 652K
20260501T00Z_MSC_RDPS_SpecificHumidity_AGL-40m_RLatLon0.09_PT025H.grib2 2026-05-01 02:51 488K
20260501T00Z_MSC_RDPS_SpecificHumidity_AGL-80m_RLatLon0.09_PT025H.grib2 2026-05-01 02:51 483K
20260501T00Z_MSC_RDPS_SpecificHumidity_IsbL-0001_RLatLon0.09_PT025H.grib2 2026-05-01 02:51 401K
20260501T00Z_MSC_RDPS_SpecificHumidity_IsbL-0005_RLatLon0.09_PT025H.grib2 2026-05-01 02:51 362K
20260501T00Z_MSC_RDPS_SpecificHumidity_IsbL-0010_RLatLon0.09_PT025H.grib2 2026-05-01 02:51 396K
20260501T00Z_MSC_RDPS_SpecificHumidity_IsbL-0020_RLatLon0.09_PT025H.grib2 2026-05-01 02:51 383K
20260501T00Z_MSC_RDPS_SpecificHumidity_IsbL-0030_RLatLon0.09_PT025H.grib2 2026-05-01 02:51 375K
20260501T00Z_MSC_RDPS_SpecificHumidity_IsbL-0050_RLatLon0.09_PT025H.grib2 2026-05-01 02:51 485K
20260501T00Z_MSC_RDPS_SpecificHumidity_IsbL-0100_RLatLon0.09_PT025H.grib2 2026-05-01 02:51 424K
20260501T00Z_MSC_RDPS_SpecificHumidity_IsbL-0150_RLatLon0.09_PT025H.grib2 2026-05-01 02:51 479K
20260501T00Z_MSC_RDPS_SpecificHumidity_IsbL-0175_RLatLon0.09_PT025H.grib2 2026-05-01 02:51 435K
20260501T00Z_MSC_RDPS_SpecificHumidity_IsbL-0200_RLatLon0.09_PT025H.grib2 2026-05-01 02:51 449K
20260501T00Z_MSC_RDPS_SpecificHumidity_IsbL-0225_RLatLon0.09_PT025H.grib2 2026-05-01 02:51 452K
20260501T00Z_MSC_RDPS_SpecificHumidity_IsbL-0250_RLatLon0.09_PT025H.grib2 2026-05-01 02:51 516K
20260501T00Z_MSC_RDPS_SpecificHumidity_IsbL-0275_RLatLon0.09_PT025H.grib2 2026-05-01 02:51 474K
20260501T00Z_MSC_RDPS_SpecificHumidity_IsbL-0300_RLatLon0.09_PT025H.grib2 2026-05-01 02:51 446K
20260501T00Z_MSC_RDPS_SpecificHumidity_IsbL-0350_RLatLon0.09_PT025H.grib2 2026-05-01 02:51 560K
20260501T00Z_MSC_RDPS_SpecificHumidity_IsbL-0400_RLatLon0.09_PT025H.grib2 2026-05-01 02:51 516K
20260501T00Z_MSC_RDPS_SpecificHumidity_IsbL-0450_RLatLon0.09_PT025H.grib2 2026-05-01 02:51 575K
20260501T00Z_MSC_RDPS_SpecificHumidity_IsbL-0500_RLatLon0.09_PT025H.grib2 2026-05-01 02:51 514K
20260501T00Z_MSC_RDPS_SpecificHumidity_IsbL-0550_RLatLon0.09_PT025H.grib2 2026-05-01 02:51 588K
20260501T00Z_MSC_RDPS_SpecificHumidity_IsbL-0600_RLatLon0.09_PT025H.grib2 2026-05-01 02:51 642K
20260501T00Z_MSC_RDPS_SpecificHumidity_IsbL-0650_RLatLon0.09_PT025H.grib2 2026-05-01 02:51 557K
20260501T00Z_MSC_RDPS_SpecificHumidity_IsbL-0700_RLatLon0.09_PT025H.grib2 2026-05-01 02:51 597K
20260501T00Z_MSC_RDPS_SpecificHumidity_IsbL-0750_RLatLon0.09_PT025H.grib2 2026-05-01 02:51 653K
20260501T00Z_MSC_RDPS_SpecificHumidity_IsbL-0800_RLatLon0.09_PT025H.grib2 2026-05-01 02:51 735K
20260501T00Z_MSC_RDPS_SpecificHumidity_IsbL-0850_RLatLon0.09_PT025H.grib2 2026-05-01 02:51 805K
20260501T00Z_MSC_RDPS_SpecificHumidity_IsbL-0875_RLatLon0.09_PT025H.grib2 2026-05-01 02:51 829K
20260501T00Z_MSC_RDPS_SpecificHumidity_IsbL-0900_RLatLon0.09_PT025H.grib2 2026-05-01 02:51 843K
20260501T00Z_MSC_RDPS_SpecificHumidity_IsbL-0925_RLatLon0.09_PT025H.grib2 2026-05-01 02:51 845K
20260501T00Z_MSC_RDPS_SpecificHumidity_IsbL-0950_RLatLon0.09_PT025H.grib2 2026-05-01 02:51 845K
20260501T00Z_MSC_RDPS_SpecificHumidity_IsbL-0970_RLatLon0.09_PT025H.grib2 2026-05-01 02:51 693K
20260501T00Z_MSC_RDPS_SpecificHumidity_IsbL-0985_RLatLon0.09_PT025H.grib2 2026-05-01 02:51 684K
20260501T00Z_MSC_RDPS_SpecificHumidity_IsbL-1000_RLatLon0.09_PT025H.grib2 2026-05-01 02:51 675K
20260501T00Z_MSC_RDPS_SpecificHumidity_IsbL-1015_RLatLon0.09_PT025H.grib2 2026-05-01 02:51 663K
20260501T00Z_MSC_RDPS_SpecificHumidity_Sfc_RLatLon0.09_PT025H.grib2 2026-05-01 02:51 328K
20260501T00Z_MSC_RDPS_StormRelativeHelicity_EtaL-10000_RLatLon0.09_PT025H.grib2 2026-05-01 02:51 1.1M
20260501T00Z_MSC_RDPS_StormSeverityIndex_EtaL-10000_RLatLon0.09_PT025H.grib2 2026-05-01 02:51 1.1M
20260501T00Z_MSC_RDPS_Thickness_IsbL-0850to0700_RLatLon0.09_PT025H.grib2 2026-05-01 02:51 174K
20260501T00Z_MSC_RDPS_Thickness_IsbL-1000to0500_RLatLon0.09_PT025H.grib2 2026-05-01 02:51 195K
20260501T00Z_MSC_RDPS_Thickness_IsbL-1000to0850_RLatLon0.09_PT025H.grib2 2026-05-01 02:51 182K
20260501T00Z_MSC_RDPS_TotalCloudCover_Sfc_RLatLon0.09_PT025H.grib2 2026-05-01 02:51 643K
20260501T00Z_MSC_RDPS_TotalTotalsIndex_Sfc_RLatLon0.09_PT025H.grib2 2026-05-01 02:51 2.3M
20260501T00Z_MSC_RDPS_UVIndex-ClearSky_Sfc_RLatLon0.09_PT025H.grib2 2026-05-01 02:51 142K
20260501T00Z_MSC_RDPS_UVIndex_Sfc_RLatLon0.09_PT025H.grib2 2026-05-01 02:51 315K
20260501T00Z_MSC_RDPS_UpwardLongwaveRadiationFlux_NTAtm_RLatLon0.09_PT025H.grib2 2026-05-01 02:51 482K
20260501T00Z_MSC_RDPS_UpwardShortwaveRadiationFlux_NTAtm_RLatLon0.09_PT025H.grib2 2026-05-01 02:51 284K
20260501T00Z_MSC_RDPS_VerticalVelocity_IsbL-0250_RLatLon0.09_PT025H.grib2 2026-05-01 02:51 422K
20260501T00Z_MSC_RDPS_VerticalVelocity_IsbL-0500_RLatLon0.09_PT025H.grib2 2026-05-01 02:51 537K
20260501T00Z_MSC_RDPS_VerticalVelocity_IsbL-0700_RLatLon0.09_PT025H.grib2 2026-05-01 02:51 618K
20260501T00Z_MSC_RDPS_VerticalVelocity_IsbL-0850_RLatLon0.09_PT025H.grib2 2026-05-01 02:51 707K
20260501T00Z_MSC_RDPS_VerticalWindShear_EtaL-6500_RLatLon0.09_PT025H.grib2 2026-05-01 02:51 1.2M
20260501T00Z_MSC_RDPS_WindChill_Sfc_RLatLon0.09_PT025H.grib2 2026-05-01 02:51 1.1M
20260501T00Z_MSC_RDPS_WindDir_AGL-10m_RLatLon0.09_PT025H.grib2 2026-05-01 02:51 945K
20260501T00Z_MSC_RDPS_WindDir_AGL-120m_RLatLon0.09_PT025H.grib2 2026-05-01 02:51 592K
20260501T00Z_MSC_RDPS_WindDir_AGL-40m_RLatLon0.09_PT025H.grib2 2026-05-01 02:51 618K
20260501T00Z_MSC_RDPS_WindDir_AGL-80m_RLatLon0.09_PT025H.grib2 2026-05-01 02:51 602K
20260501T00Z_MSC_RDPS_WindDir_IsbL-0001_RLatLon0.09_PT025H.grib2 2026-05-01 02:51 318K
20260501T00Z_MSC_RDPS_WindDir_IsbL-0005_RLatLon0.09_PT025H.grib2 2026-05-01 02:51 363K
20260501T00Z_MSC_RDPS_WindDir_IsbL-0010_RLatLon0.09_PT025H.grib2 2026-05-01 02:51 384K
20260501T00Z_MSC_RDPS_WindDir_IsbL-0020_RLatLon0.09_PT025H.grib2 2026-05-01 02:51 437K
20260501T00Z_MSC_RDPS_WindDir_IsbL-0030_RLatLon0.09_PT025H.grib2 2026-05-01 02:51 415K
20260501T00Z_MSC_RDPS_WindDir_IsbL-0050_RLatLon0.09_PT025H.grib2 2026-05-01 02:51 415K
20260501T00Z_MSC_RDPS_WindDir_IsbL-0100_RLatLon0.09_PT025H.grib2 2026-05-01 02:51 411K
20260501T00Z_MSC_RDPS_WindDir_IsbL-0150_RLatLon0.09_PT025H.grib2 2026-05-01 02:51 413K
20260501T00Z_MSC_RDPS_WindDir_IsbL-0175_RLatLon0.09_PT025H.grib2 2026-05-01 02:51 433K
20260501T00Z_MSC_RDPS_WindDir_IsbL-0200_RLatLon0.09_PT025H.grib2 2026-05-01 02:51 446K
20260501T00Z_MSC_RDPS_WindDir_IsbL-0225_RLatLon0.09_PT025H.grib2 2026-05-01 02:51 448K
20260501T00Z_MSC_RDPS_WindDir_IsbL-0250_RLatLon0.09_PT025H.grib2 2026-05-01 02:51 450K
20260501T00Z_MSC_RDPS_WindDir_IsbL-0275_RLatLon0.09_PT025H.grib2 2026-05-01 02:51 470K
20260501T00Z_MSC_RDPS_WindDir_IsbL-0300_RLatLon0.09_PT025H.grib2 2026-05-01 02:51 468K
20260501T00Z_MSC_RDPS_WindDir_IsbL-0350_RLatLon0.09_PT025H.grib2 2026-05-01 02:51 487K
20260501T00Z_MSC_RDPS_WindDir_IsbL-0400_RLatLon0.09_PT025H.grib2 2026-05-01 02:51 506K
20260501T00Z_MSC_RDPS_WindDir_IsbL-0450_RLatLon0.09_PT025H.grib2 2026-05-01 02:51 527K
20260501T00Z_MSC_RDPS_WindDir_IsbL-0500_RLatLon0.09_PT025H.grib2 2026-05-01 02:51 542K
20260501T00Z_MSC_RDPS_WindDir_IsbL-0550_RLatLon0.09_PT025H.grib2 2026-05-01 02:51 559K
20260501T00Z_MSC_RDPS_WindDir_IsbL-0600_RLatLon0.09_PT025H.grib2 2026-05-01 02:51 584K
20260501T00Z_MSC_RDPS_WindDir_IsbL-0650_RLatLon0.09_PT025H.grib2 2026-05-01 02:51 625K
20260501T00Z_MSC_RDPS_WindDir_IsbL-0700_RLatLon0.09_PT025H.grib2 2026-05-01 02:51 671K
20260501T00Z_MSC_RDPS_WindDir_IsbL-0750_RLatLon0.09_PT025H.grib2 2026-05-01 02:51 718K
20260501T00Z_MSC_RDPS_WindDir_IsbL-0800_RLatLon0.09_PT025H.grib2 2026-05-01 02:51 782K
20260501T00Z_MSC_RDPS_WindDir_IsbL-0850_RLatLon0.09_PT025H.grib2 2026-05-01 02:51 857K
20260501T00Z_MSC_RDPS_WindDir_IsbL-0875_RLatLon0.09_PT025H.grib2 2026-05-01 02:51 880K
20260501T00Z_MSC_RDPS_WindDir_IsbL-0900_RLatLon0.09_PT025H.grib2 2026-05-01 02:51 894K
20260501T00Z_MSC_RDPS_WindDir_IsbL-0925_RLatLon0.09_PT025H.grib2 2026-05-01 02:51 898K
20260501T00Z_MSC_RDPS_WindDir_IsbL-0950_RLatLon0.09_PT025H.grib2 2026-05-01 02:51 896K
20260501T00Z_MSC_RDPS_WindDir_IsbL-0970_RLatLon0.09_PT025H.grib2 2026-05-01 02:51 901K
20260501T00Z_MSC_RDPS_WindDir_IsbL-0985_RLatLon0.09_PT025H.grib2 2026-05-01 02:51 909K
20260501T00Z_MSC_RDPS_WindDir_IsbL-1000_RLatLon0.09_PT025H.grib2 2026-05-01 02:51 922K
20260501T00Z_MSC_RDPS_WindDir_IsbL-1015_RLatLon0.09_PT025H.grib2 2026-05-01 02:51 937K
20260501T00Z_MSC_RDPS_WindGust-Max_AGL-10m_RLatLon0.09_PT025H.grib2 2026-05-01 02:51 1.0M
20260501T00Z_MSC_RDPS_WindGust-Min_AGL-10m_RLatLon0.09_PT025H.grib2 2026-05-01 02:51 961K
20260501T00Z_MSC_RDPS_WindGust_AGL-10m_RLatLon0.09_PT025H.grib2 2026-05-01 02:51 1.0M
20260501T00Z_MSC_RDPS_WindSpeed_AGL-10m_RLatLon0.09_PT025H.grib2 2026-05-01 02:51 829K
20260501T00Z_MSC_RDPS_WindSpeed_AGL-120m_RLatLon0.09_PT025H.grib2 2026-05-01 02:51 529K
20260501T00Z_MSC_RDPS_WindSpeed_AGL-40m_RLatLon0.09_PT025H.grib2 2026-05-01 02:51 532K
20260501T00Z_MSC_RDPS_WindSpeed_AGL-80m_RLatLon0.09_PT025H.grib2 2026-05-01 02:51 529K
20260501T00Z_MSC_RDPS_WindSpeed_IsbL-0001_RLatLon0.09_PT025H.grib2 2026-05-01 02:51 329K
20260501T00Z_MSC_RDPS_WindSpeed_IsbL-0005_RLatLon0.09_PT025H.grib2 2026-05-01 02:51 380K
20260501T00Z_MSC_RDPS_WindSpeed_IsbL-0010_RLatLon0.09_PT025H.grib2 2026-05-01 02:51 360K
20260501T00Z_MSC_RDPS_WindSpeed_IsbL-0020_RLatLon0.09_PT025H.grib2 2026-05-01 02:51 319K
20260501T00Z_MSC_RDPS_WindSpeed_IsbL-0030_RLatLon0.09_PT025H.grib2 2026-05-01 02:51 317K
20260501T00Z_MSC_RDPS_WindSpeed_IsbL-0050_RLatLon0.09_PT025H.grib2 2026-05-01 02:51 449K
20260501T00Z_MSC_RDPS_WindSpeed_IsbL-0100_RLatLon0.09_PT025H.grib2 2026-05-01 02:51 474K
20260501T00Z_MSC_RDPS_WindSpeed_IsbL-0150_RLatLon0.09_PT025H.grib2 2026-05-01 02:51 381K
20260501T00Z_MSC_RDPS_WindSpeed_IsbL-0175_RLatLon0.09_PT025H.grib2 2026-05-01 02:51 426K
20260501T00Z_MSC_RDPS_WindSpeed_IsbL-0200_RLatLon0.09_PT025H.grib2 2026-05-01 02:51 440K
20260501T00Z_MSC_RDPS_WindSpeed_IsbL-0225_RLatLon0.09_PT025H.grib2 2026-05-01 02:51 444K
20260501T00Z_MSC_RDPS_WindSpeed_IsbL-0250_RLatLon0.09_PT025H.grib2 2026-05-01 02:51 444K
20260501T00Z_MSC_RDPS_WindSpeed_IsbL-0275_RLatLon0.09_PT025H.grib2 2026-05-01 02:51 461K
20260501T00Z_MSC_RDPS_WindSpeed_IsbL-0300_RLatLon0.09_PT025H.grib2 2026-05-01 02:51 459K
20260501T00Z_MSC_RDPS_WindSpeed_IsbL-0350_RLatLon0.09_PT025H.grib2 2026-05-01 02:51 470K
20260501T00Z_MSC_RDPS_WindSpeed_IsbL-0400_RLatLon0.09_PT025H.grib2 2026-05-01 02:51 473K
20260501T00Z_MSC_RDPS_WindSpeed_IsbL-0450_RLatLon0.09_PT025H.grib2 2026-05-01 02:51 458K
20260501T00Z_MSC_RDPS_WindSpeed_IsbL-0500_RLatLon0.09_PT025H.grib2 2026-05-01 02:51 462K
20260501T00Z_MSC_RDPS_WindSpeed_IsbL-0550_RLatLon0.09_PT025H.grib2 2026-05-01 02:51 583K
20260501T00Z_MSC_RDPS_WindSpeed_IsbL-0600_RLatLon0.09_PT025H.grib2 2026-05-01 02:51 592K
20260501T00Z_MSC_RDPS_WindSpeed_IsbL-0650_RLatLon0.09_PT025H.grib2 2026-05-01 02:51 655K
20260501T00Z_MSC_RDPS_WindSpeed_IsbL-0700_RLatLon0.09_PT025H.grib2 2026-05-01 02:51 678K
20260501T00Z_MSC_RDPS_WindSpeed_IsbL-0750_RLatLon0.09_PT025H.grib2 2026-05-01 02:51 708K
20260501T00Z_MSC_RDPS_WindSpeed_IsbL-0800_RLatLon0.09_PT025H.grib2 2026-05-01 02:51 749K
20260501T00Z_MSC_RDPS_WindSpeed_IsbL-0850_RLatLon0.09_PT025H.grib2 2026-05-01 02:51 805K
20260501T00Z_MSC_RDPS_WindSpeed_IsbL-0875_RLatLon0.09_PT025H.grib2 2026-05-01 02:51 826K
20260501T00Z_MSC_RDPS_WindSpeed_IsbL-0900_RLatLon0.09_PT025H.grib2 2026-05-01 02:51 839K
20260501T00Z_MSC_RDPS_WindSpeed_IsbL-0925_RLatLon0.09_PT025H.grib2 2026-05-01 02:51 847K
20260501T00Z_MSC_RDPS_WindSpeed_IsbL-0950_RLatLon0.09_PT025H.grib2 2026-05-01 02:51 849K
20260501T00Z_MSC_RDPS_WindSpeed_IsbL-0970_RLatLon0.09_PT025H.grib2 2026-05-01 02:51 851K
20260501T00Z_MSC_RDPS_WindSpeed_IsbL-0985_RLatLon0.09_PT025H.grib2 2026-05-01 02:51 848K
20260501T00Z_MSC_RDPS_WindSpeed_IsbL-1000_RLatLon0.09_PT025H.grib2 2026-05-01 02:51 841K
20260501T00Z_MSC_RDPS_WindSpeed_IsbL-1015_RLatLon0.09_PT025H.grib2 2026-05-01 02:51 831K
20260501T00Z_MSC_RDPS_WindU_AGL-10m_RLatLon0.09_PT025H.grib2 2026-05-01 02:51 427K
20260501T00Z_MSC_RDPS_WindU_AGL-120m_RLatLon0.09_PT025H.grib2 2026-05-01 02:51 412K
20260501T00Z_MSC_RDPS_WindU_AGL-40m_RLatLon0.09_PT025H.grib2 2026-05-01 02:51 530K
20260501T00Z_MSC_RDPS_WindU_AGL-80m_RLatLon0.09_PT025H.grib2 2026-05-01 02:51 529K
20260501T00Z_MSC_RDPS_WindU_IsbL-0001_RLatLon0.09_PT025H.grib2 2026-05-01 02:51 240K
20260501T00Z_MSC_RDPS_WindU_IsbL-0005_RLatLon0.09_PT025H.grib2 2026-05-01 02:51 282K
20260501T00Z_MSC_RDPS_WindU_IsbL-0010_RLatLon0.09_PT025H.grib2 2026-05-01 02:51 293K
20260501T00Z_MSC_RDPS_WindU_IsbL-0020_RLatLon0.09_PT025H.grib2 2026-05-01 02:51 309K
20260501T00Z_MSC_RDPS_WindU_IsbL-0030_RLatLon0.09_PT025H.grib2 2026-05-01 02:51 310K
20260501T00Z_MSC_RDPS_WindU_IsbL-0050_RLatLon0.09_PT025H.grib2 2026-05-01 02:51 340K
20260501T00Z_MSC_RDPS_WindU_IsbL-0100_RLatLon0.09_PT025H.grib2 2026-05-01 02:51 428K
20260501T00Z_MSC_RDPS_WindU_IsbL-0150_RLatLon0.09_PT025H.grib2 2026-05-01 02:51 396K
20260501T00Z_MSC_RDPS_WindU_IsbL-0175_RLatLon0.09_PT025H.grib2 2026-05-01 02:51 419K
20260501T00Z_MSC_RDPS_WindU_IsbL-0200_RLatLon0.09_PT025H.grib2 2026-05-01 02:51 336K
20260501T00Z_MSC_RDPS_WindU_IsbL-0225_RLatLon0.09_PT025H.grib2 2026-05-01 02:51 337K
20260501T00Z_MSC_RDPS_WindU_IsbL-0250_RLatLon0.09_PT025H.grib2 2026-05-01 02:51 337K
20260501T00Z_MSC_RDPS_WindU_IsbL-0275_RLatLon0.09_PT025H.grib2 2026-05-01 02:51 350K
20260501T00Z_MSC_RDPS_WindU_IsbL-0300_RLatLon0.09_PT025H.grib2 2026-05-01 02:51 347K
20260501T00Z_MSC_RDPS_WindU_IsbL-0350_RLatLon0.09_PT025H.grib2 2026-05-01 02:51 356K
20260501T00Z_MSC_RDPS_WindU_IsbL-0400_RLatLon0.09_PT025H.grib2 2026-05-01 02:51 461K
20260501T00Z_MSC_RDPS_WindU_IsbL-0450_RLatLon0.09_PT025H.grib2 2026-05-01 02:51 464K
20260501T00Z_MSC_RDPS_WindU_IsbL-0500_RLatLon0.09_PT025H.grib2 2026-05-01 02:51 469K
20260501T00Z_MSC_RDPS_WindU_IsbL-0550_RLatLon0.09_PT025H.grib2 2026-05-01 02:51 473K
20260501T00Z_MSC_RDPS_WindU_IsbL-0600_RLatLon0.09_PT025H.grib2 2026-05-01 02:51 482K
20260501T00Z_MSC_RDPS_WindU_IsbL-0650_RLatLon0.09_PT025H.grib2 2026-05-01 02:51 498K
20260501T00Z_MSC_RDPS_WindU_IsbL-0700_RLatLon0.09_PT025H.grib2 2026-05-01 02:51 504K
20260501T00Z_MSC_RDPS_WindU_IsbL-0750_RLatLon0.09_PT025H.grib2 2026-05-01 02:51 530K
20260501T00Z_MSC_RDPS_WindU_IsbL-0800_RLatLon0.09_PT025H.grib2 2026-05-01 02:51 566K
20260501T00Z_MSC_RDPS_WindU_IsbL-0850_RLatLon0.09_PT025H.grib2 2026-05-01 02:51 613K
20260501T00Z_MSC_RDPS_WindU_IsbL-0875_RLatLon0.09_PT025H.grib2 2026-05-01 02:51 631K
20260501T00Z_MSC_RDPS_WindU_IsbL-0900_RLatLon0.09_PT025H.grib2 2026-05-01 02:51 641K
20260501T00Z_MSC_RDPS_WindU_IsbL-0925_RLatLon0.09_PT025H.grib2 2026-05-01 02:51 650K
20260501T00Z_MSC_RDPS_WindU_IsbL-0950_RLatLon0.09_PT025H.grib2 2026-05-01 02:51 649K
20260501T00Z_MSC_RDPS_WindU_IsbL-0970_RLatLon0.09_PT025H.grib2 2026-05-01 02:51 648K
20260501T00Z_MSC_RDPS_WindU_IsbL-0985_RLatLon0.09_PT025H.grib2 2026-05-01 02:51 644K
20260501T00Z_MSC_RDPS_WindU_IsbL-1000_RLatLon0.09_PT025H.grib2 2026-05-01 02:51 777K
20260501T00Z_MSC_RDPS_WindU_IsbL-1015_RLatLon0.09_PT025H.grib2 2026-05-01 02:51 770K
20260501T00Z_MSC_RDPS_WindV_AGL-10m_RLatLon0.09_PT025H.grib2 2026-05-01 02:51 425K
20260501T00Z_MSC_RDPS_WindV_AGL-120m_RLatLon0.09_PT025H.grib2 2026-05-01 02:51 524K
20260501T00Z_MSC_RDPS_WindV_AGL-40m_RLatLon0.09_PT025H.grib2 2026-05-01 02:51 527K
20260501T00Z_MSC_RDPS_WindV_AGL-80m_RLatLon0.09_PT025H.grib2 2026-05-01 02:51 526K
20260501T00Z_MSC_RDPS_WindV_IsbL-0001_RLatLon0.09_PT025H.grib2 2026-05-01 02:51 240K
20260501T00Z_MSC_RDPS_WindV_IsbL-0005_RLatLon0.09_PT025H.grib2 2026-05-01 02:51 285K
20260501T00Z_MSC_RDPS_WindV_IsbL-0010_RLatLon0.09_PT025H.grib2 2026-05-01 02:51 297K
20260501T00Z_MSC_RDPS_WindV_IsbL-0020_RLatLon0.09_PT025H.grib2 2026-05-01 02:51 312K
20260501T00Z_MSC_RDPS_WindV_IsbL-0030_RLatLon0.09_PT025H.grib2 2026-05-01 02:51 312K
20260501T00Z_MSC_RDPS_WindV_IsbL-0050_RLatLon0.09_PT025H.grib2 2026-05-01 02:51 339K
20260501T00Z_MSC_RDPS_WindV_IsbL-0100_RLatLon0.09_PT025H.grib2 2026-05-01 02:51 426K
20260501T00Z_MSC_RDPS_WindV_IsbL-0150_RLatLon0.09_PT025H.grib2 2026-05-01 02:51 395K
20260501T00Z_MSC_RDPS_WindV_IsbL-0175_RLatLon0.09_PT025H.grib2 2026-05-01 02:51 418K
20260501T00Z_MSC_RDPS_WindV_IsbL-0200_RLatLon0.09_PT025H.grib2 2026-05-01 02:51 334K
20260501T00Z_MSC_RDPS_WindV_IsbL-0225_RLatLon0.09_PT025H.grib2 2026-05-01 02:51 336K
20260501T00Z_MSC_RDPS_WindV_IsbL-0250_RLatLon0.09_PT025H.grib2 2026-05-01 02:51 335K
20260501T00Z_MSC_RDPS_WindV_IsbL-0275_RLatLon0.09_PT025H.grib2 2026-05-01 02:51 348K
20260501T00Z_MSC_RDPS_WindV_IsbL-0300_RLatLon0.09_PT025H.grib2 2026-05-01 02:51 345K
20260501T00Z_MSC_RDPS_WindV_IsbL-0350_RLatLon0.09_PT025H.grib2 2026-05-01 02:51 352K
20260501T00Z_MSC_RDPS_WindV_IsbL-0400_RLatLon0.09_PT025H.grib2 2026-05-01 02:51 457K
20260501T00Z_MSC_RDPS_WindV_IsbL-0450_RLatLon0.09_PT025H.grib2 2026-05-01 02:51 461K
20260501T00Z_MSC_RDPS_WindV_IsbL-0500_RLatLon0.09_PT025H.grib2 2026-05-01 02:51 466K
20260501T00Z_MSC_RDPS_WindV_IsbL-0550_RLatLon0.09_PT025H.grib2 2026-05-01 02:51 469K
20260501T00Z_MSC_RDPS_WindV_IsbL-0600_RLatLon0.09_PT025H.grib2 2026-05-01 02:51 461K
20260501T00Z_MSC_RDPS_WindV_IsbL-0650_RLatLon0.09_PT025H.grib2 2026-05-01 02:51 479K
20260501T00Z_MSC_RDPS_WindV_IsbL-0700_RLatLon0.09_PT025H.grib2 2026-05-01 02:51 499K
20260501T00Z_MSC_RDPS_WindV_IsbL-0750_RLatLon0.09_PT025H.grib2 2026-05-01 02:51 525K
20260501T00Z_MSC_RDPS_WindV_IsbL-0800_RLatLon0.09_PT025H.grib2 2026-05-01 02:51 561K
20260501T00Z_MSC_RDPS_WindV_IsbL-0850_RLatLon0.09_PT025H.grib2 2026-05-01 02:51 610K
20260501T00Z_MSC_RDPS_WindV_IsbL-0875_RLatLon0.09_PT025H.grib2 2026-05-01 02:51 627K
20260501T00Z_MSC_RDPS_WindV_IsbL-0900_RLatLon0.09_PT025H.grib2 2026-05-01 02:51 637K
20260501T00Z_MSC_RDPS_WindV_IsbL-0925_RLatLon0.09_PT025H.grib2 2026-05-01 02:51 645K
20260501T00Z_MSC_RDPS_WindV_IsbL-0950_RLatLon0.09_PT025H.grib2 2026-05-01 02:51 784K
20260501T00Z_MSC_RDPS_WindV_IsbL-0970_RLatLon0.09_PT025H.grib2 2026-05-01 02:51 783K
20260501T00Z_MSC_RDPS_WindV_IsbL-0985_RLatLon0.09_PT025H.grib2 2026-05-01 02:51 780K
20260501T00Z_MSC_RDPS_WindV_IsbL-1000_RLatLon0.09_PT025H.grib2 2026-05-01 02:51 774K
20260501T00Z_MSC_RDPS_WindV_IsbL-1015_RLatLon0.09_PT025H.grib2 2026-05-01 02:51 811K